EHI
0 0 0 0 0 0 0 0 0 0 0 0 0 0 0 0 0 0 0 0 0 0 0 0 0 0 0 0 0 0 0 0 0 0 0 0 0 0 0 0 0 0 0 0
0 0 0 0 0 0 0 0 0 0 0 0 0 0 0 0 0 0 0 0 0 0 0 0 0 0 0 0 0 0 0 0 0 0 0 0 0 0 0 0 0 0 0 0
0 0 0 0 0 0 0 0 0 0 0 0 0 0 0 0 0 0 0 0 0 0 0 0 0 0 0 0 0 0 0 0 0 0 0 0 0 0 0 0 0 0 0 0
0 0 0 0 0 0 0 0 0 0 0 0 0 0 0 0 0 0 0 0 0 0 0 0 0 0 0 0 0 0 0 0 0 0 0 0 0 0 0 0 0 0 0 0
0 0 0 0 0 0 0 0 0 0 0 0 0 0 0 0 0 0 0 0 0 0 0 0 0 0 0 0 0 0 0 0 0 0 0 0 0 0 0 0 0 0 0 0
0 0 0 0 0 0 0 0 0 0 0 0 0 0 0 0 0 0 0 0 0 0 0 0 0 0 0 0 0 0 0 0 0 0 0 0 0 0 0 0 0 0 0 0
0 0 0 0 0 0 0 0 0 0 0 0 0 0 0 0 0 0 0 0 0 0 0 0 0 0 0 0 0 0 0 0 0 0 0 0 0 0 0 0 0 0 0 0
0 0 0 0 0 0 0 0 0 0 0 0 0 0 0 0 0 0 0 0 0 0 0 0 0 0 0 0 0 0 0 0 0 0 0 0 0 0 0 0 0 0 0 0
0 0 0 0 0 0 0 0 0 0 0 0 0 0 0 0 0 0 0 0 0 0 0 0 0 0 0 0 0 0 0 0 0 0 0 0 0 0 0 0 0 0 0 0
0 0 0 0 0 0 0 0 0 0 0 0 0 0 0 0 0 0 0 0 0 0 0 0 0 0 0 0 0 0 0 0 0 0 0 0 0 0 0 0 0 0 0 0
0 0 0 0 0 0 0 0 0 0 0 0 0 0 0 0 0 0 0 0 0 0 0 0 0 0 0 0 0 0 0 0 0 0 0 0 0 0 0 0 0 0 0 0
0 0 0 0 0 0 0 0 0 0 0 0 0 0 0 0 0 0 0 0 0 0 0 0 0 0 0 0 0 0 0 0 0 0 0 0 0 0 0 0 0 0 0 0
0 0 0 0 0 0 0 0 0 0 0 0 0 0 0 0 0 0 0 0 0 0 0 0 0 0 0 0 0 0 0 0 0 0 0 0 0 0 0 0 0 0 0 0
0 0 0 0 0 0 0 0 0 0 0 0 0 0 0 0 0 0 0 0 0 0 0 0 0 0 0 0 0 0 0 0 0 0 0 0 0 0 0 0 0 0 0 0
0 0 0 0 0 0 0 0 0 0 0 0 0 0 0 0 0 0 0 0 0 0 0 0 0 0 0 0 0 0 0 0 0 0 0 0 0 0 0 0 0 0 0 0
0 0 0 0 0 0 0 0 0 0 0 0 0 0 0 0 0 0 0 0 0 0 0 0 0 0 0 0 0 0 0 0 0 0 0 0 0 0 0 0 0 0 0 0
0 0 0 0 0 0 0 0 0 0 0 0 0 0 0 0 0 0 0 0 0 0 0 0 0 0 0 0 0 0 0 0 0 0 0 0 0 0 0 0 0 0 0 0
0 0 0 0 0 0 0 0 0 0 0 0 0 0 0 0 0 0 0 0 0 0 0 0 0 0 0 0 0 0 0 0 0 0 0 0 0 0 0 0 0 0 0 0
0 0 0 0 0 0 0 0 0 0 0 0 0 0 0 0 0 0 0 0 0 0 0 0 0 0 0 0 0 0 0 0 0 0 0 0 0 0 0 0 0 0 0 0
0 0 0 0 0 0 0 0 0 0 0 0 0 0 0 0 0 0 0 0 0 0 0 0 0 0 0 0 0 0 0 0 0 0 0 0 0 0 0 0 0 0 0 0
0 0 0 0 0 0 0 0 0 0 0 0 0 0 0 0 0 0 0 0 0 0 0 0 0 0 0 0 0 0 0 0 0 0 0 0 0 0 0 0 0 0 0 0
0 0 0 0 0 0 0 0 0 0 0 0 0 0 0 0 0 0 0 0 0 0 0 0 0 0 0 0 0 0 0 0 0 0 0 0 0 0 0 0 0 0 0 0
0 0 0 0 0 0 0 0 0 0 0 0 0 0 0 0 0 0 0 0 0 0 0 0 0 0 0 0 0 0 0 0 0 0 0 0 0 0 0 0 0 0 0 0
0 0 0 0 0 0 0 0 0 0 0 0 0 0 0 0 0 0 0 0 0 0 0 0 0 0 0 0 0 0 0 0 0 0 0 0 0 0 0 0 0 0 0 0
0 0 0 0 0 0 0 0 0 0 0 0 0 0 0 0 0 0 0 0 0 0 0 0 0 0 0 0 0 0 0 0 0 0 0 0 0 0 0 0 0 0 0 0
0 0 0 0 0 0 0 0 0 0 0 0 0 0 0 0 0 0 0 0 0 0 0 0 0 0 0 0 0 0 0 0 0 0 0 0 0 0 0 0 0 0 0 0
0 0 0 0 0 0 0 0 0 0 0 0 0 0 0 0 0 0 0 0 0 0 0 0 0 0 0 0 0 0 0 0 0 0 0 0 0 0 0 0 0 0 0 0
Wind_Speed
4 3 4 6 7 9 11 10 9 9 10 12 7 6 6 5 6 6 7 7 8 8 7 6 6 6 5 5 5 5 5 4 4 4 4 4 4 5 5 5 6 5 5 5
3 2 4 6 8 10 12 11 12 11 15 9 6 4 5 7 8 9 10 10 9 8 8 8 8 7 7 6 5 5 5 5 4 4 4 4 4 4 5 5 5 5 6 5
3 2 2 8 11 13 9 9 10 15 15 6 6 8 9 10 10 12 11 10 10 10 10 9 9 9 8 7 6 6 6 5 5 5 5 5 5 5 5 4 5 5 5 5
1 0 8 9 3 6 8 9 11 10 9 8 11 9 7 8 10 11 10 9 9 8 8 7 8 7 7 7 7 7 6 6 6 6 5 5 5 5 4 4 4 4 4 4
2 3 9 8 4 5 6 8 8 12 12 9 5 2 5 7 9 10 9 7 7 7 7 8 9 9 9 8 7 7 7 6 6 6 6 6 5 5 4 4 3 3 3 3
4 4 7 7 2 3 3 6 4 5 8 5 4 3 6 4 6 5 4 4 5 6 6 8 8 9 9 8 8 8 7 7 6 6 6 6 5 5 3 4 3 3 3 2
6 6 8 7 3 4 3 6 3 3 4 5 7 6 3 1 3 4 4 4 6 7 7 7 9 9 9 8 8 7 6 6 6 6 6 6 5 4 4 4 4 3 2 1
6 7 10 4 5 6 7 3 2 2 2 4 4 2 1 1 3 4 4 5 6 6 6 6 8 9 8 8 6 6 7 7 6 6 5 5 5 4 4 5 4 3 2 1
8 9 5 3 6 5 3 3 3 2 2 2 2 2 2 2 2 3 4 4 4 6 6 5 6 8 8 7 7 8 7 7 6 6 5 5 6 6 4 4 3 3 3 2
5 8 6 6 6 5 4 4 4 2 2 3 3 3 3 2 3 3 3 4 5 6 6 6 6 6 6 7 8 8 8 7 6 6 5 5 4 5 5 5 4 4 4 3
6 7 7 6 5 5 4 3 3 2 2 3 3 3 3 3 4 4 4 4 5 6 6 7 6 6 6 8 9 8 7 7 6 6 6 5 5 5 5 5 6 6 5 4
8 6 5 6 4 3 4 4 4 3 2 2 3 4 3 3 3 4 4 4 5 5 6 6 7 7 7 8 9 9 7 7 6 5 5 5 4 3 7 8 10 11 9 7
8 5 6 7 5 4 4 4 3 3 3 3 2 2 3 2 3 3 4 5 5 6 6 6 7 7 7 8 9 9 8 7 6 6 5 5 5 5 4 5 8 10 11 12
6 5 6 6 6 4 3 2 1 1 0 1 1 1 2 2 2 3 4 4 4 4 5 6 7 7 7 9 9 9 8 9 8 6 6 6 6 5 4 4 4 4 7 11
6 6 7 5 4 3 2 1 1 1 1 1 1 1 1 2 2 3 2 2 3 4 5 5 6 6 7 8 9 9 8 6 6 6 6 6 5 5 5 5 5 4 3 5
5 4 4 4 5 3 2 2 2 2 1 1 1 1 1 2 2 2 1 3 4 5 5 5 6 5 6 8 8 7 7 11 9 6 6 6 6 6 6 6 6 5 6 5
4 4 3 4 4 3 3 3 2 2 1 1 1 1 0 0 1 1 2 3 4 4 4 5 5 4 6 7 8 6 6 7 12 7 6 7 7 7 7 6 6 7 6 7
5 5 4 4 4 3 2 1 1 1 1 1 0 0 0 1 2 3 2 2 2 2 3 3 3 4 5 6 6 5 5 5 6 7 6 7 7 7 7 7 7 8 6 6
3 3 2 1 1 1 2 2 1 1 1 1 0 1 1 2 2 2 2 1 2 3 3 3 4 4 5 6 6 5 5 6 6 6 6 9 8 7 7 7 7 7 6 6
4 3 3 3 4 3 3 2 2 2 1 1 1 1 1 2 2 2 2 2 2 2 2 2 3 3 4 5 7 4 6 6 6 6 6 6 7 7 7 7 7 7 7 7
3 3 3 3 4 4 3 3 2 2 2 1 1 1 2 2 2 2 1 2 2 2 2 3 2 2 3 4 7 4 5 6 6 6 6 6 7 7 7 7 7 7 7 7
2 2 2 2 2 2 2 2 2 1 2 1 1 2 2 2 2 2 1 1 3 4 2 1 2 3 4 4 4 4 5 6 6 5 6 6 6 7 7 7 7 7 7 7
1 1 1 1 1 1 1 1 1 1 1 1 2 2 2 2 2 2 2 2 2 4 2 2 4 5 6 3 3 4 5 6 6 6 6 6 6 6 7 7 7 7 7 7
1 1 1 1 0 1 1 2 1 1 1 1 1 1 1 2 2 1 2 4 6 5 2 4 6 6 5 2 2 3 4 5 5 5 5 5 6 6 6 6 6 6 6 7
2 1 1 1 2 2 2 2 1 2 2 1 2 2 1 1 2 2 2 3 5 5 3 5 7 7 3 2 2 3 3 4 5 5 5 5 5 6 6 6 6 6 6 6
2 2 2 3 3 2 2 1 2 2 2 2 2 2 1 1 2 2 2 3 4 5 3 3 3 4 2 2 3 3 3 4 5 5 5 5 5 6 5 6 7 6 6 6
3 3 2 3 3 3 2 2 2 3 2 2 2 2 2 2 2 2 2 2 3 3 3 3 3 3 3 3 3 3 3 3 4 4 4 4 4 5 5 6 5 5 5 5
Wind_Direction
242 236 193 211 213 201 211 216 222 237 238 253 255 250 240 216 200 196 201 200 198 196 192 183 177 173 166 160 154 145 137 132 129 123 114 105 95 85 77 74 73 69 71 73
281 254 223 243 233 220 225 228 236 251 258 249 245 232 225 214 202 206 211 211 206 199 191 189 185 178 170 166 160 149 146 146 142 136 126 116 108 98 89 80 73 68 63 62
262 288 321 261 227 214 213 209 205 235 249 237 232 229 226 218 209 212 214 210 205 201 197 193 186 176 175 168 155 153 155 155 154 149 140 133 124 114 104 95 87 76 64 61
232 93 244 245 232 206 220 240 225 239 252 238 235 239 233 215 209 215 213 208 207 199 191 181 170 165 158 154 157 160 162 164 163 157 149 141 133 128 119 106 98 86 73 65
188 241 277 289 260 194 203 264 234 236 251 254 250 274 270 228 210 214 211 204 197 185 172 162 163 159 153 156 160 165 171 173 171 164 158 153 151 145 133 123 112 101 91 78
195 223 250 256 260 173 136 282 270 228 247 242 163 214 261 231 199 200 183 168 157 146 144 156 160 154 156 163 169 180 179 174 168 165 163 162 159 149 137 135 132 122 106 91
217 238 262 255 237 134 187 252 280 247 246 202 195 217 250 165 152 154 146 143 142 147 155 163 158 156 163 170 184 180 166 161 162 164 163 159 152 147 145 141 135 132 128 106
200 223 251 231 149 186 224 252 274 273 252 207 218 230 186 142 139 139 136 138 146 150 155 156 160 161 169 183 178 159 158 161 163 163 163 158 155 155 153 151 153 161 161 192
202 221 242 205 212 233 221 242 258 253 243 182 189 210 189 167 155 153 153 153 153 154 155 162 170 171 178 180 161 159 161 166 166 165 166 163 167 168 162 165 170 180 183 208
254 264 267 262 254 256 235 238 252 243 218 186 199 204 194 185 175 168 166 170 163 160 169 180 182 184 182 166 163 163 169 172 169 170 173 174 176 177 176 181 185 189 197 212
258 275 295 282 249 250 256 250 256 256 223 207 200 208 201 201 196 189 181 176 175 181 188 191 183 186 178 168 166 170 173 175 177 178 178 182 187 194 192 199 192 192 202 201
239 238 236 267 286 277 258 254 242 231 245 237 203 207 198 204 198 187 187 182 187 193 194 190 185 188 182 176 174 174 179 183 183 182 183 184 186 205 224 216 223 223 216 209
245 257 247 264 280 272 256 256 248 225 225 230 218 198 191 195 191 187 189 192 200 202 198 190 189 193 188 180 180 184 187 185 185 186 188 189 189 194 210 228 232 232 230 230
256 263 267 260 261 267 255 249 215 167 184 174 172 159 162 176 182 198 210 211 206 201 198 194 197 203 191 183 185 191 190 192 190 191 192 193 195 199 199 201 216 238 240 240
264 247 252 263 265 267 265 209 170 191 160 113 118 144 164 191 217 227 223 202 192 197 200 199 207 210 188 184 189 193 192 193 191 189 193 196 195 197 203 209 217 224 228 247
285 278 262 255 251 250 238 209 209 224 200 193 185 219 229 229 236 233 212 188 193 211 212 209 217 210 187 188 191 194 199 201 193 190 193 197 198 202 208 213 220 223 227 227
265 267 255 259 250 240 224 216 216 214 197 208 231 249 255 258 261 259 249 229 226 228 217 214 221 204 190 192 193 196 196 201 200 197 200 201 203 208 210 213 219 225 230 225
256 258 252 248 239 227 217 190 169 160 183 233 242 124 197 237 258 268 268 264 249 244 233 227 218 198 197 198 197 196 194 197 197 201 203 206 209 210 210 215 222 229 233 233
327 318 319 319 273 167 140 122 105 89 70 66 96 242 256 266 277 284 274 246 243 254 262 246 228 204 205 206 198 196 196 199 204 207 207 216 218 214 215 219 224 226 227 225
6 22 40 45 52 69 80 73 69 62 38 22 11 339 317 310 305 295 271 249 246 260 273 257 227 219 215 212 204 199 202 205 208 210 210 213 218 220 220 222 226 227 227 228
13 27 43 52 54 58 60 58 55 37 17 21 10 322 307 308 308 299 283 278 296 294 286 270 240 235 223 221 210 204 207 211 214 214 214 216 220 223 225 225 227 229 229 231
5 24 35 44 54 47 36 35 33 18 7 2 352 338 328 326 326 311 271 280 311 316 310 271 263 257 252 235 211 210 215 218 221 220 220 221 223 226 228 227 228 230 231 231
327 338 354 4 22 11 11 12 8 359 343 333 332 331 321 311 308 308 309 321 315 317 320 289 292 283 269 239 223 221 224 226 226 225 225 225 227 229 231 231 231 231 232 232
293 303 310 329 345 304 303 309 318 321 315 309 314 319 319 318 313 297 295 315 323 323 317 312 312 301 285 248 236 235 235 235 234 232 232 231 232 233 234 235 236 235 235 236
256 251 242 243 253 257 263 280 299 300 302 299 305 309 300 271 277 297 306 309 319 325 318 318 319 316 306 274 253 248 245 243 244 241 235 235 236 237 238 237 238 238 237 237
247 249 247 239 239 247 245 243 256 269 279 291 297 294 296 295 294 300 305 310 315 323 324 315 314 313 304 292 279 271 263 265 265 255 247 244 242 241 241 240 239 240 240 240
256 252 253 258 251 236 230 230 243 256 251 257 276 285 291 298 300 304 310 312 315 316 314 312 311 306 299 291 286 281 277 269 264 261 256 251 247 245 244 242 243 242 240 239